• en France
  • Liste des pays
  • À 7 jours
  • Température de l'eau
  • Carte satellitaire
  • Carte météo
  • Widgets météo
  • user-avatar
    Se connecter

    Météo par heure à Ngo

    Ce jour, 25 Février, Dimanche

    Heure Température Précipitation Vent Pression Humidité
    00:00 +24°C° 0 mm 0 m/s 708 mmHg 69%
    01:00 +23°C° 0 mm 0 m/s 708 mmHg 72%
    02:00 +23°C° 0 mm 0 m/s 708 mmHg 73%
    03:00 +25°C° 0 mm 1 m/s 708 mmHg 74%
    04:00 +25°C° 0 mm 1 m/s 708 mmHg 75%
    05:00 +25°C° 0 mm 1 m/s 708 mmHg 77%
    06:00 +25°C° 0 mm 1 m/s 709 mmHg 78%
    07:00 +25°C° 0 mm 2 m/s 709 mmHg 80%
    08:00 +27°C° 1 mm 2 m/s 709 mmHg 74%
    09:00 +29°C° 1 mm 2 m/s 710 mmHg 69%
    10:00 +30°C° 1 mm 2 m/s 710 mmHg 63%
    11:00 +32°C° 0,4 mm 2 m/s 709 mmHg 58%
    12:00 +33°C° 0,4 mm 1 m/s 709 mmHg 52%
    13:00 +35°C° 0,4 mm 1 m/s 708 mmHg 47%
    14:00 +34°C° 1,3 mm 1 m/s 708 mmHg 51%
    15:00 +32°C° 1,3 mm 1 m/s 707 mmHg 56%
    16:00 +31°C° 1,3 mm 2 m/s 706 mmHg 60%
    17:00 +29°C° 0,7 mm 2 m/s 707 mmHg 66%
    18:00 +28°C° 0,7 mm 2 m/s 707 mmHg 72%
    19:00 +26°C° 0,7 mm 2 m/s 707 mmHg 78%
    20:00 +26°C° 0,2 mm 3 m/s 708 mmHg 78%
    21:00 +25°C° 0,2 mm 3 m/s 708 mmHg 79%
    22:00 +25°C° 0,2 mm 3 m/s 709 mmHg 80%
    23:00 +25°C° 0 mm 3 m/s 708 mmHg 81%

    Demain, 26 Février, Lundi

    Heure Température Précipitation Vent Pression Humidité
    00:00 +25°C° 0 mm 4 m/s 708 mmHg 81%
    01:00 +23°C° 0 mm 4 m/s 708 mmHg 82%
    02:00 +23°C° 0 mm 4 m/s 708 mmHg 83%
    03:00 +24°C° 0 mm 3 m/s 708 mmHg 84%
    04:00 +24°C° 0 mm 3 m/s 708 mmHg 85%
    05:00 +24°C° 0 mm 3 m/s 708 mmHg 85%
    06:00 +24°C° 0 mm 3 m/s 709 mmHg 85%
    07:00 +24°C° 0 mm 2 m/s 709 mmHg 85%
    08:00 +26°C° 0,4 mm 3 m/s 710 mmHg 78%
    09:00 +28°C° 0,4 mm 3 m/s 710 mmHg 71%
    10:00 +29°C° 0,4 mm 3 m/s 711 mmHg 64%
    11:00 +30°C° 0,8 mm 3 m/s 710 mmHg 60%
    12:00 +33°C° 0,8 mm 3 m/s 709 mmHg 56%
    13:00 +34°C° 0,8 mm 3 m/s 709 mmHg 52%
    14:00 +33°C° 0,6 mm 3 m/s 708 mmHg 55%
    15:00 +31°C° 0,6 mm 3 m/s 708 mmHg 57%
    16:00 +31°C° 0,6 mm 3 m/s 707 mmHg 60%
    17:00 +29°C° 0,5 mm 3 m/s 707 mmHg 66%
    18:00 +27°C° 0,5 mm 3 m/s 708 mmHg 72%
    19:00 +26°C° 0,5 mm 2 m/s 708 mmHg 78%
    20:00 +25°C° 0,3 mm 2 m/s 709 mmHg 80%
    21:00 +25°C° 0,3 mm 2 m/s 709 mmHg 81%
    22:00 +25°C° 0,3 mm 2 m/s 710 mmHg 83%
    23:00 +24°C° 2,5 mm 2 m/s 710 mmHg 85%

    Après-demain, 27 Février, Mardi

    Heure Température Précipitation Vent Pression Humidité
    00:00 +24°C° 2,5 mm 2 m/s 710 mmHg 87%
    01:00 +24°C° 2,5 mm 2 m/s 709 mmHg 88%
    02:00 +24°C° 0,7 mm 2 m/s 709 mmHg 89%
    03:00 +23°C° 0,7 mm 2 m/s 709 mmHg 89%
    04:00 +23°C° 0,7 mm 2 m/s 709 mmHg 90%
    05:00 +23°C° 0,1 mm 2 m/s 709 mmHg 89%
    06:00 +22°C° 0,1 mm 3 m/s 709 mmHg 89%
    07:00 +22°C° 0,1 mm 3 m/s 709 mmHg 88%
    08:00 +24°C° 0,1 mm 3 m/s 710 mmHg 84%
    09:00 +25°C° 0,1 mm 4 m/s 710 mmHg 80%
    10:00 +26°C° 0,1 mm 4 m/s 711 mmHg 76%
    11:00 +27°C° 0 mm 4 m/s 710 mmHg 70%
    12:00 +29°C° 0 mm 3 m/s 710 mmHg 64%
    13:00 +30°C° 0 mm 3 m/s 709 mmHg 58%
    14:00 +30°C° 0 mm 3 m/s 708 mmHg 58%
    15:00 +30°C° 0 mm 3 m/s 708 mmHg 58%
    16:00 +30°C° 0 mm 3 m/s 707 mmHg 57%
    17:00 +29°C° 0 mm 2 m/s 707 mmHg 63%
    18:00 +27°C° 0 mm 2 m/s 708 mmHg 69%
    19:00 +26°C° 0 mm 1 m/s 708 mmHg 75%
    20:00 +25°C° 0,1 mm 1 m/s 709 mmHg 77%
    21:00 +25°C° 0,1 mm 2 m/s 709 mmHg 79%
    22:00 +24°C° 0,1 mm 2 m/s 710 mmHg 82%
    23:00 +24°C° 0,1 mm 2 m/s 710 mmHg 83%

    28 Février, Mercredi

    Heure Température Précipitation Vent Pression Humidité
    00:00 +24°C° 0,1 mm 2 m/s 709 mmHg 84%
    01:00 +24°C° 0,1 mm 2 m/s 709 mmHg 85%
    02:00 +24°C° 0,1 mm 2 m/s 709 mmHg 87%
    03:00 +23°C° 0,1 mm 2 m/s 709 mmHg 89%
    04:00 +23°C° 0,1 mm 2 m/s 709 mmHg 90%
    05:00 +23°C° 0 mm 2 m/s 709 mmHg 90%
    06:00 +23°C° 0 mm 2 m/s 709 mmHg 89%
    07:00 +23°C° 0 mm 2 m/s 710 mmHg 88%
    08:00 +24°C° 0 mm 3 m/s 710 mmHg 84%
    09:00 +25°C° 0 mm 3 m/s 711 mmHg 80%
    10:00 +26°C° 0 mm 3 m/s 711 mmHg 76%
    11:00 +27°C° 0,2 mm 3 m/s 710 mmHg 72%
    12:00 +27°C° 0,2 mm 3 m/s 710 mmHg 69%
    13:00 +28°C° 0,2 mm 3 m/s 709 mmHg 65%
    14:00 +28°C° 0 mm 3 m/s 709 mmHg 66%
    15:00 +28°C° 0 mm 3 m/s 708 mmHg 66%
    16:00 +28°C° 0 mm 2 m/s 707 mmHg 66%
    17:00 +27°C° 0 mm 2 m/s 708 mmHg 70%
    18:00 +26°C° 0 mm 2 m/s 708 mmHg 74%
    19:00 +25°C° 0 mm 1 m/s 709 mmHg 78%
    20:00 +25°C° 0 mm 1 m/s 709 mmHg 80%
    21:00 +24°C° 0 mm 1 m/s 710 mmHg 81%
    22:00 +24°C° 0 mm 1 m/s 710 mmHg 82%
    23:00 +24°C° 0 mm 1 m/s 710 mmHg 82%

    1 Mars, Jeudi

    Heure Température Précipitation Vent Pression Humidité
    00:00 +24°C° 0 mm 2 m/s 709 mmHg 83%
    01:00 +24°C° 0 mm 2 m/s 709 mmHg 83%
    02:00 +23°C° 0 mm 2 m/s 709 mmHg 84%
    03:00 +23°C° 0 mm 2 m/s 708 mmHg 86%
    04:00 +23°C° 0 mm 1 m/s 708 mmHg 88%
    05:00 +23°C° 0 mm 1 m/s 709 mmHg 86%
    06:00 +23°C° 0 mm 2 m/s 709 mmHg 85%
    07:00 +23°C° 0 mm 2 m/s 710 mmHg 84%
    08:00 +25°C° 0 mm 2 m/s 710 mmHg 75%
    09:00 +27°C° 0 mm 2 m/s 711 mmHg 65%
    10:00 +29°C° 0 mm 3 m/s 711 mmHg 56%
    11:00 +30°C° 0 mm 3 m/s 710 mmHg 53%
    12:00 +31°C° 0 mm 3 m/s 710 mmHg 49%
    13:00 +33°C° 0 mm 3 m/s 709 mmHg 45%
    14:00 +33°C° 0 mm 3 m/s 709 mmHg 46%
    15:00 +31°C° 0 mm 3 m/s 708 mmHg 47%
    16:00 +31°C° 0 mm 3 m/s 708 mmHg 47%
    17:00 +30°C° 0 mm 3 m/s 708 mmHg 53%
    18:00 +28°C° 0 mm 2 m/s 708 mmHg 58%
    19:00 +26°C° 0 mm 2 m/s 708 mmHg 64%
    20:00 +26°C° 0 mm 2 m/s 709 mmHg 65%
    21:00 +25°C° 0 mm 2 m/s 709 mmHg 66%
    22:00 +24°C° 0 mm 2 m/s 709 mmHg 67%
    23:00 +24°C° 0 mm 2 m/s 708 mmHg 68%

    2 Mars, Vendredi

    Heure Température Précipitation Vent Pression Humidité
    00:00 +24°C° 0 mm 2 m/s 708 mmHg 70%
    01:00 +23°C° 0 mm 2 m/s 708 mmHg 71%
    02:00 +23°C° 0 mm 2 m/s 708 mmHg 73%
    03:00 +23°C° 0 mm 2 m/s 708 mmHg 75%
    04:00 +23°C° 0 mm 2 m/s 708 mmHg 77%
    05:00 +23°C° 0 mm 2 m/s 708 mmHg 78%
    06:00 +23°C° 0 mm 2 m/s 709 mmHg 79%
    07:00 +24°C° 0 mm 2 m/s 709 mmHg 80%
    08:00 +26°C° 0 mm 3 m/s 709 mmHg 74%
    09:00 +28°C° 0 mm 3 m/s 710 mmHg 67%
    10:00 +30°C° 0 mm 3 m/s 710 mmHg 61%
    11:00 +31°C° 0,2 mm 3 m/s 709 mmHg 57%
    12:00 +33°C° 0,2 mm 3 m/s 709 mmHg 53%
    13:00 +35°C° 0,2 mm 3 m/s 708 mmHg 49%
    14:00 +34°C° 0,4 mm 2 m/s 708 mmHg 49%
    15:00 +34°C° 0,4 mm 2 m/s 707 mmHg 49%
    16:00 +34°C° 0,4 mm 2 m/s 707 mmHg 49%
    17:00 +31°C° 0 mm 2 m/s 707 mmHg 54%
    18:00 +29°C° 0 mm 2 m/s 707 mmHg 60%
    19:00 +28°C° 0 mm 1 m/s 707 mmHg 66%
    20:00 +27°C° 0,2 mm 2 m/s 707 mmHg 69%
    21:00 +26°C° 0,2 mm 2 m/s 708 mmHg 72%
    22:00 +25°C° 0,2 mm 2 m/s 708 mmHg 75%
    23:00 +25°C° 0,1 mm 2 m/s 708 mmHg 77%
    Voir plus